Terminal Aerodrome Forecast
Issued by NWS Charleston, WV

Current Version | Previous Version | Text Only | Print | Product List | Glossary Off
Versions: 1 2 3 4 5 6 7 8 9 10 11 12 13 14 15 16 17 18 19 20 21 22 23 24 25 26 27

000
FTUS41 KRLX 021524 AAB
TAFEKN
TAF AMD
KEKN 021524Z 0215/0312 31006KT P6SM SCT060
     FM022100 31006KT P6SM VCSH BKN045
     FM030200 00000KT 3SM BR BKN035
     FM030600 00000KT 2SM BR SCT004 BKN035=

USA.gov is the U.S. government's official web portal to all federal, state and local government web resources and services.